Weather History for KMIW - June, 2012

Change the Weather History Date:

Saturday, June 30, 2012

  Actual Average Record
Temperature  
Mean Temperature 78 °F 72 °F  
Max Temperature 92 °F 83 °F 93 °F (2011)
Min Temperature 63 °F 62 °F 54 °F (2004)
Degree Days  
Heating Degree Days 0 0  
Month to date heating degree days 11 28  
Since 1 June heating degree days 11 28  
Since 1 July heating degree days 5518 7012  
Cooling Degree Days 13 8  
Month to date cooling degree days 240 163  
Year to date cooling degree days 376 213  
Since 1 June cooling degree days 240 163  
Growing Degree Days 26 (Base 50)    
Moisture  
Dew Point 67 °F    
Average Humidity 74    
Maximum Humidity 100    
Minimum Humidity 47    
Precipitation  
Precipitation 0.00 in 0.15 in 1.54 in (2014)
Month to date precipitation 0.83 5.12  
Year to date precipitation 8.02  
Sea Level Pressure  
Sea Level Pressure 29.83 in    
Wind  
Wind Speed 5 mph (ENE)    
Max Wind Speed 12 mph    
Max Gust Speed 26 mph    
Visibility 7 miles    
Events Fog    
T = Trace of Precipitation, MM = Missing Value Source: NWS Daily Summary

Daily Weather History Graph

Daily Weather History Graph

Search for Another Location

Airport or City:

Trip Planner

Search our weather history database for the weather conditions in past years. The results will help you decide how hot, cold, wet, or windy it might be!

Date:

Astronomy

Jun. 30, 2012 Rise Set
Actual Time 5:39 AM CDT 8:51 PM CDT
Civil Twilight 5:04 AM CDT 9:25 PM CDT
Nautical Twilight 4:20 AM CDT 10:10 PM CDT
Astronomical Twilight 3:27 AM CDT 11:03 PM CDT
Moon 5:47 PM CDT (6/30) 2:36 AM CDT (6/30)
Length of Visible Light 16h 20m
Length of Day
15h 12m
Waxing Gibbous, 87% of the Moon is Illuminated
Jun 30
Waxing Gibbous
Jul 3
Full
Jul 10
Last Quarter
Jul 18
New
Jul 26
First Quarter

Hourly Weather History & Observations

Time (CDT) Temp. Heat Index Dew Point Humidity Pressure Visibility Wind Dir Wind Speed Gust Speed Precip Events Conditions
12:04 AM 64.4 °F - 64.4 °F 100% 29.82 in 0.5 mi NNE 4.6 mph - N/A Fog Fog
12:09 AM 64.4 °F - 64.4 °F 100% 29.82 in 1.2 mi Calm Calm - 0.01 in   Partly Cloudy
12:18 AM 64.4 °F - 64.4 °F 100% 29.83 in 2.5 mi Calm Calm - 0.01 in   Partly Cloudy
12:32 AM 64.4 °F - 64.4 °F 100% 29.83 in 1.0 mi East 3.5 mph - 0.01 in   Mist
12:39 AM 64.4 °F - 64.4 °F 100% 29.83 in 0.5 mi Calm Calm - 0.01 in Fog Fog
12:43 AM 64.4 °F - 64.4 °F 100% 29.83 in 1.2 mi ENE 3.5 mph - 0.01 in   Partly Cloudy
12:47 AM 64.4 °F - 62.6 °F 94% 29.83 in 0.8 mi ENE 4.6 mph - 0.01 in   Mist
12:53 AM 64.0 °F - 63.0 °F 96% 29.81 in 0.5 mi NE 3.5 mph - 0.01 in Fog Fog
1:01 AM 62.6 °F - 62.6 °F 100% 29.84 in 1.5 mi North 5.8 mph - N/A   Scattered Clouds
1:05 AM 64.4 °F - 62.6 °F 94% 29.84 in 3.0 mi North 6.9 mph - N/A   Scattered Clouds
1:53 AM 64.9 °F - 64.0 °F 97% 29.81 in 6.0 mi ENE 3.5 mph - N/A   Clear
2:53 AM 64.9 °F - 64.0 °F 97% 29.81 in 7.0 mi SSE 5.8 mph - N/A   Clear
3:53 AM 64.9 °F - 64.0 °F 97% 29.81 in 5.0 mi North 5.8 mph - N/A   Scattered Clouds
4:53 AM 64.9 °F - 64.9 °F 100% 29.84 in 4.0 mi Calm Calm - N/A   Scattered Clouds
6:53 AM 68.0 °F - 66.0 °F 93% 29.83 in 5.0 mi NNE 5.8 mph 26.5 mph N/A   Clear
7:53 AM 73.0 °F - 69.1 °F 87% 29.82 in 10.0 mi NE 3.5 mph - N/A   Clear
8:53 AM 75.9 °F - 69.1 °F 79% 29.83 in 10.0 mi South 4.6 mph - N/A   Clear
9:53 AM 79.0 °F - 70.0 °F 74% 29.83 in 10.0 mi ESE 4.6 mph - N/A   Clear
10:53 AM 82.9 °F 87.5 °F 71.1 °F 67% 29.83 in 10.0 mi NE 4.6 mph - N/A   Clear
11:53 AM 86.0 °F 88.8 °F 66.9 °F 53% 29.83 in 10.0 mi East 8.1 mph - N/A   Clear
12:53 PM 88.0 °F 92.1 °F 69.1 °F 53% 29.82 in 10.0 mi East 9.2 mph - N/A   Clear
1:53 PM 90.0 °F 93.6 °F 68.0 °F 48% 29.82 in 10.0 mi ESE 8.1 mph - N/A   Clear
2:53 PM 91.0 °F 95.6 °F 69.1 °F 48% 29.83 in 10.0 mi East 6.9 mph - N/A   Clear
3:53 PM 91.0 °F 95.2 °F 68.0 °F 47% 29.83 in 10.0 mi ENE 6.9 mph - N/A   Clear
4:53 PM 91.0 °F 95.6 °F 69.1 °F 48% 29.83 in 10.0 mi East 8.1 mph - N/A   Clear
5:53 PM 89.1 °F 94.1 °F 70.0 °F 53% 29.82 in 10.0 mi East 9.2 mph - N/A   Clear
6:53 PM 87.1 °F 92.8 °F 71.1 °F 59% 29.83 in 10.0 mi SSE 4.6 mph - N/A   Clear
7:53 PM 84.0 °F 89.0 °F 71.1 °F 65% 29.83 in 10.0 mi ESE 3.5 mph - N/A   Clear
8:53 PM 78.1 °F - 73.0 °F 84% 29.81 in 10.0 mi ESE 4.6 mph - N/A   Clear
9:53 PM 77.0 °F - 71.1 °F 82% 29.83 in 10.0 mi Calm Calm - N/A   Clear
10:53 PM 73.0 °F - 69.1 °F 87% 29.84 in 10.0 mi NNE 3.5 mph - N/A   Clear
11:53 PM 71.1 °F - 69.1 °F 93% 29.86 in 10.0 mi East 5.8 mph - N/A   Clear